Back to catalog

USA 18

AliveMilitaryLEO
NORAD 16631·PAYLOAD·🇺🇸 United States

Launched Feb 9, 1986 from Vandenberg Space Force Base

Loading…

Next Passes (next 24 hours)

TLE

FreshSource: Space-Track

Epoch: Sep 14, 2026, 09:41 UTC

1 16631U 86014H   26257.40403214  .00006510  00000-0  41616-3 0  9999
2 16631  63.2938 136.5226 0744485 114.2741 253.7896 13.93513579356782

Track USA 18 in real time with AllMySat

Download on the App Store